• In Hungary
  • List of Countries
  • For 7 days
  • Water Temperature
  • Satellite Maps
  • Weather Map
  • News
  • Weather Widgets
  • user-avatar
    Login

    Hourly Weather Boma

    Today, 20 November, Monday

    Time Temperature Precipitation Wind Pressure Humidity
    00:00 +20°C° 0 mm 0 mps 700 mmHg 96%
    01:00 +21°C° 0 mm 0 mps 700 mmHg 95%
    02:00 +20°C° 0 mm 0 mps 700 mmHg 96%
    03:00 +20°C° 0 mm 0 mps 700 mmHg 97%
    04:00 +20°C° 0 mm 0 mps 699 mmHg 97%
    05:00 +20°C° 0 mm 0 mps 700 mmHg 96%
    06:00 +20°C° 0 mm 0 mps 700 mmHg 95%
    07:00 +21°C° 0 mm 0 mps 700 mmHg 92%
    08:00 +24°C° 0 mm 0 mps 701 mmHg 80%
    09:00 +27°C° 0 mm 0 mps 701 mmHg 68%
    10:00 +29°C° 0 mm 0 mps 701 mmHg 56%
    11:00 +32°C° 0.2 mm 1 mps 701 mmHg 51%
    12:00 +33°C° 0.2 mm 1 mps 700 mmHg 47%
    13:00 +34°C° 0 mm 2 mps 700 mmHg 43%
    14:00 +34°C° 0 mm 2 mps 700 mmHg 43%
    15:00 +34°C° 0 mm 2 mps 699 mmHg 44%
    16:00 +33°C° 0 mm 1 mps 699 mmHg 44%
    17:00 +31°C° 0 mm 1 mps 699 mmHg 52%
    18:00 +29°C° 0 mm 1 mps 699 mmHg 59%
    19:00 +25°C° 0 mm 0 mps 699 mmHg 67%
    20:00 +24°C° 0 mm 0 mps 699 mmHg 67%
    21:00 +24°C° 0 mm 0 mps 699 mmHg 68%
    22:00 +24°C° 0 mm 0 mps 700 mmHg 69%
    23:00 +24°C° 0.2 mm 0 mps 700 mmHg 73%

    Tomorrow, 21 November, Tuesday

    Time Temperature Precipitation Wind Pressure Humidity
    00:00 +23°C° 0.2 mm 0 mps 699 mmHg 78%
    01:00 +22°C° 0.2 mm 0 mps 699 mmHg 83%
    02:00 +22°C° 0.4 mm 0 mps 699 mmHg 85%
    03:00 +22°C° 0.4 mm 0 mps 699 mmHg 87%
    04:00 +21°C° 0.4 mm 0 mps 699 mmHg 89%
    05:00 +21°C° 0.2 mm 0 mps 699 mmHg 89%
    06:00 +21°C° 0.2 mm 0 mps 700 mmHg 89%
    07:00 +22°C° 0.2 mm 0 mps 700 mmHg 89%
    08:00 +24°C° 0.1 mm 0 mps 700 mmHg 77%
    09:00 +27°C° 0.1 mm 0 mps 701 mmHg 66%
    10:00 +32°C° 0.1 mm 1 mps 701 mmHg 55%
    11:00 +33°C° 0.1 mm 1 mps 700 mmHg 48%
    12:00 +35°C° 0.1 mm 2 mps 700 mmHg 42%
    13:00 +36°C° 0.1 mm 2 mps 699 mmHg 36%
    14:00 +35°C° 0 mm 2 mps 698 mmHg 40%
    15:00 +33°C° 0 mm 1 mps 698 mmHg 43%
    16:00 +32°C° 0 mm 1 mps 697 mmHg 47%
    17:00 +28°C° 0 mm 0 mps 697 mmHg 52%
    18:00 +27°C° 0 mm 0 mps 698 mmHg 57%
    19:00 +25°C° 0 mm 0 mps 698 mmHg 62%
    20:00 +25°C° 0 mm 0 mps 698 mmHg 63%
    21:00 +24°C° 0 mm 0 mps 699 mmHg 64%
    22:00 +24°C° 0 mm 0 mps 700 mmHg 65%
    23:00 +24°C° 0 mm 0 mps 699 mmHg 68%

    Day after tomorrow, 22 November, Wednesday

    Time Temperature Precipitation Wind Pressure Humidity
    00:00 +23°C° 0 mm 0 mps 699 mmHg 70%
    01:00 +25°C° 0 mm 1 mps 699 mmHg 72%
    02:00 +22°C° 0 mm 0 mps 699 mmHg 74%
    03:00 +22°C° 0 mm 0 mps 698 mmHg 77%
    04:00 +21°C° 0 mm 0 mps 698 mmHg 79%
    05:00 +21°C° 0 mm 0 mps 698 mmHg 78%
    06:00 +21°C° 0 mm 0 mps 699 mmHg 78%
    07:00 +22°C° 0 mm 0 mps 699 mmHg 77%
    08:00 +27°C° 0 mm 1 mps 700 mmHg 66%
    09:00 +30°C° 0 mm 1 mps 700 mmHg 55%
    10:00 +33°C° 0 mm 1 mps 701 mmHg 44%
    11:00 +34°C° 0 mm 1 mps 700 mmHg 39%
    12:00 +35°C° 0 mm 1 mps 699 mmHg 34%
    13:00 +37°C° 0 mm 2 mps 699 mmHg 29%
    14:00 +36°C° 0 mm 1 mps 698 mmHg 31%
    15:00 +35°C° 0 mm 1 mps 697 mmHg 33%
    16:00 +34°C° 0 mm 1 mps 697 mmHg 35%
    17:00 +32°C° 0 mm 1 mps 697 mmHg 42%
    18:00 +30°C° 0 mm 1 mps 697 mmHg 50%
    19:00 +27°C° 0 mm 1 mps 698 mmHg 58%
    20:00 +27°C° 0 mm 1 mps 698 mmHg 62%
    21:00 +26°C° 0 mm 1 mps 699 mmHg 65%
    22:00 +26°C° 0 mm 1 mps 699 mmHg 69%
    23:00 +25°C° 0.8 mm 1 mps 699 mmHg 76%

    23 November, Thursday

    Time Temperature Precipitation Wind Pressure Humidity
    00:00 +24°C° 0.8 mm 1 mps 699 mmHg 83%
    01:00 +23°C° 0.8 mm 1 mps 698 mmHg 89%
    02:00 +23°C° 0.4 mm 1 mps 698 mmHg 92%
    03:00 +23°C° 0.4 mm 1 mps 698 mmHg 94%
    04:00 +22°C° 0.4 mm 1 mps 698 mmHg 97%
    05:00 +23°C° 0 mm 1 mps 698 mmHg 96%
    06:00 +23°C° 0 mm 1 mps 699 mmHg 95%
    07:00 +23°C° 0 mm 1 mps 700 mmHg 94%
    08:00 +25°C° 0 mm 1 mps 700 mmHg 87%
    09:00 +26°C° 0 mm 1 mps 700 mmHg 80%
    10:00 +28°C° 0 mm 1 mps 701 mmHg 73%
    11:00 +29°C° 0 mm 1 mps 700 mmHg 64%
    12:00 +31°C° 0 mm 1 mps 699 mmHg 56%
    13:00 +33°C° 0 mm 1 mps 699 mmHg 47%
    14:00 +33°C° 0 mm 1 mps 698 mmHg 46%
    15:00 +32°C° 0 mm 1 mps 698 mmHg 45%
    16:00 +32°C° 0 mm 1 mps 697 mmHg 44%
    17:00 +30°C° 0 mm 1 mps 698 mmHg 55%
    18:00 +28°C° 0 mm 1 mps 698 mmHg 65%
    19:00 +26°C° 0 mm 1 mps 698 mmHg 75%
    20:00 +25°C° 0 mm 1 mps 699 mmHg 79%
    21:00 +24°C° 0 mm 1 mps 699 mmHg 84%
    22:00 +24°C° 0 mm 1 mps 700 mmHg 89%
    23:00 +23°C° 0 mm 1 mps 700 mmHg 91%

    24 November, Friday

    Time Temperature Precipitation Wind Pressure Humidity
    00:00 +23°C° 0 mm 1 mps 699 mmHg 94%
    01:00 +22°C° 0 mm 1 mps 699 mmHg 96%
    02:00 +22°C° 0 mm 1 mps 699 mmHg 96%
    03:00 +22°C° 0 mm 1 mps 699 mmHg 96%
    04:00 +22°C° 0 mm 1 mps 699 mmHg 96%
    05:00 +23°C° 0 mm 1 mps 699 mmHg 94%
    06:00 +23°C° 0 mm 1 mps 700 mmHg 91%
    07:00 +23°C° 0 mm 1 mps 700 mmHg 88%
    08:00 +26°C° 0 mm 1 mps 701 mmHg 75%
    09:00 +26°C° 0 mm 0 mps 701 mmHg 62%
    10:00 +28°C° 0 mm 0 mps 701 mmHg 48%
    11:00 +30°C° 0 mm 0 mps 701 mmHg 41%
    12:00 +32°C° 0 mm 0 mps 700 mmHg 33%
    13:00 +34°C° 0 mm 0 mps 699 mmHg 26%
    14:00 +33°C° 0 mm 0 mps 699 mmHg 25%
    15:00 +33°C° 0 mm 0 mps 698 mmHg 25%
    16:00 +32°C° 0 mm 0 mps 698 mmHg 24%
    17:00 +29°C° 0 mm 0 mps 698 mmHg 30%
    18:00 +26°C° 0 mm 0 mps 698 mmHg 37%
    19:00 +23°C° 0 mm 0 mps 698 mmHg 43%
    20:00 +22°C° 0 mm 0 mps 699 mmHg 46%
    21:00 +22°C° 0 mm 0 mps 699 mmHg 49%
    22:00 +23°C° 0 mm 1 mps 699 mmHg 53%
    23:00 +20°C° 0 mm 0 mps 699 mmHg 54%

    25 November, Saturday

    Time Temperature Precipitation Wind Pressure Humidity
    00:00 +20°C° 0 mm 0 mps 699 mmHg 55%
    01:00 +19°C° 0 mm 0 mps 699 mmHg 56%
    02:00 +19°C° 0 mm 0 mps 699 mmHg 58%
    03:00 +18°C° 0 mm 0 mps 699 mmHg 60%
    04:00 +18°C° 0 mm 0 mps 699 mmHg 63%
    05:00 +18°C° 0 mm 0 mps 699 mmHg 64%
    06:00 +19°C° 0 mm 0 mps 700 mmHg 66%
    07:00 +19°C° 0 mm 0 mps 700 mmHg 68%
    08:00 +22°C° 0 mm 0 mps 701 mmHg 59%
    09:00 +27°C° 0 mm 1 mps 701 mmHg 51%
    10:00 +30°C° 0 mm 1 mps 702 mmHg 43%
    11:00 +32°C° 0 mm 1 mps 701 mmHg 36%
    12:00 +34°C° 0 mm 1 mps 700 mmHg 29%
    13:00 +35°C° 0 mm 1 mps 700 mmHg 22%
    14:00 +35°C° 0 mm 1 mps 699 mmHg 22%
    15:00 +32°C° 0 mm 0 mps 699 mmHg 22%
    16:00 +32°C° 0 mm 0 mps 698 mmHg 22%
    17:00 +29°C° 0 mm 0 mps 699 mmHg 28%
    18:00 +26°C° 0 mm 0 mps 699 mmHg 33%
    19:00 +23°C° 0 mm 0 mps 699 mmHg 39%
    20:00 +22°C° 0 mm 0 mps 699 mmHg 42%
    21:00 +22°C° 0 mm 0 mps 700 mmHg 45%
    22:00 +21°C° 0 mm 0 mps 700 mmHg 48%
    23:00 +20°C° 0 mm 0 mps 700 mmHg 50%
    Show more